START 1 DEB, 25284

Orbit data source: Space-Track

START 1 DEB, 25284 is space debris in LEO originally from a launch on Thu, 25 Mar 1993 UTC launched from the Plesetsk Missile And Space Complex (PKMTR). Debris objects in space refer to the collection of defunct objects orbiting the Earth. Examples of debris include non-operational satellites, rocket bodies, and fragments generated from explosions, collisions, or faulty payload assembly.

Loading next visibility...
Identifier
25284, 1993-014F
Orbit
LEO
Country
Flag of CISCIS
Related business
Manufacturer
Kompleks-MIT
Mission
Spacecraft
Bus & Motor
Unknown
Mass
Unknown
Launch date (UTC)
1993-03-25 (33 years ago)
Launch vehicle
Unknown
Launch site
Plesetsk Missile And Space Complex (PKMTR)
Object type
Payload
Rocket body
Debris
Shape & HBR
Unknown shape, 0.2 m
Radar Cross Section
Medium (>0.1 m² and <1 m²)

Expand to show TLE details & history
Last TLE update: 2 days ago

TLE from 2 days ago
0 START 1 DEB
1 25284U 93014F   26171.45515397  .00000243  00000-0  85886-4 0  9992
2 25284  75.7619 281.5186 0178107  41.0949  33.5876 14.28960974469551
Epoch: 2026-06-20T10:55Z
TLE epoch observation values (Epoch: 2026-06-20T10:55:25.303Z)
Latitude
70.10557°
Longitude
-106.78777°
Altitude
701.319 km
Speed
7.567 km/s
True Right ascension
21h 42m 56s
True Declination
69° 59' 40"
Sunlit
Object was in daylight at epoch
Visualization orbit readout
Latitude
Unknown
Longitude
Unknown
Altitude
Unknown
Speed
Unknown
Apparent Right ascension
Unknown
Apparent Declination
Unknown
Sunlit
N/A
Visualization observer readout
Local Sidereal Time
02:14:51
Azimuth
Unknown
Elevation
Unknown
Doppler factor
Unknown
Orbital elements
Apogee altitude
920.415 km
Perigee altitude
664.98 km
Semi-major axis
7,170.834 km
Eccentricity
0.01781
Inclination
75.7619°
RAAN
281.5186°
Arg. of periapsis
41.0949°
True anomaly
34.73792°
Mean anomaly
33.5876°
Eccentric anomaly
34.16061°
Mean motion
3.57428 °/min
Orbital period
100.72 mins
BSTAR
0.000085886
Loading maneuver chart data...
Computing Atmospheric mass density...
Loading historical data...
Loading historical data...
Loading historical data...
Loading historical data...
Loading historical data...
Loading historical data...
Loading historical data...

Documentation

Showing up to 5 results
|